Year,Month,Day,Hour,Minute,Value (Times are PST for temperature in C)
2011,05,12,00,00,6.40
2011,05,12,00,01,6.40
2011,05,12,00,02,6.30
2011,05,12,00,03,6.30
2011,05,12,00,04,6.30
2011,05,12,00,05,6.30
2011,05,12,00,06,6.30
2011,05,12,00,07,6.30
2011,05,12,00,08,6.30
2011,05,12,00,09,6.30
2011,05,12,00,10,6.30
2011,05,12,00,11,6.30
2011,05,12,00,12,6.20
2011,05,12,00,13,6.10
2011,05,12,00,14,6.10
2011,05,12,00,15,6.00
2011,05,12,00,16,5.90
2011,05,12,00,17,5.80
2011,05,12,00,18,5.70
2011,05,12,00,19,5.60
2011,05,12,00,20,5.60
2011,05,12,00,21,5.50
2011,05,12,00,22,5.40
2011,05,12,00,23,5.40
2011,05,12,00,24,5.30
2011,05,12,00,25,5.30
2011,05,12,00,26,5.30
2011,05,12,00,27,5.40
2011,05,12,00,28,5.40
2011,05,12,00,29,5.40
2011,05,12,00,30,5.40
2011,05,12,00,31,5.40
2011,05,12,00,32,5.40
2011,05,12,00,33,5.40
2011,05,12,00,34,5.30
2011,05,12,00,35,5.30
2011,05,12,00,36,5.30
2011,05,12,00,37,5.20
2011,05,12,00,38,5.20
2011,05,12,00,39,5.20
2011,05,12,00,40,5.20
2011,05,12,00,41,5.20
2011,05,12,00,42,5.10
2011,05,12,00,43,5.20
2011,05,12,00,44,5.20
2011,05,12,00,45,5.20
2011,05,12,00,46,5.20
2011,05,12,00,47,5.20
2011,05,12,00,48,5.30
2011,05,12,00,49,5.30
2011,05,12,00,50,5.30
2011,05,12,00,51,5.30
2011,05,12,00,52,5.30
2011,05,12,00,53,5.30
2011,05,12,00,54,5.30
2011,05,12,00,55,5.30
2011,05,12,00,56,5.30
2011,05,12,00,57,5.30
2011,05,12,00,58,5.30
2011,05,12,00,59,5.30
2011,05,12,01,00,5.20
2011,05,12,01,01,5.20
2011,05,12,01,02,5.10
2011,05,12,01,03,5.10
2011,05,12,01,04,5.00
2011,05,12,01,05,4.90
2011,05,12,01,06,4.90
2011,05,12,01,07,4.90
2011,05,12,01,08,4.90
2011,05,12,01,09,4.90
2011,05,12,01,10,4.90
2011,05,12,01,11,4.90
2011,05,12,01,12,5.00
2011,05,12,01,13,5.10
2011,05,12,01,14,5.10
2011,05,12,01,15,5.20
2011,05,12,01,16,5.20
2011,05,12,01,17,5.20
2011,05,12,01,18,5.20
2011,05,12,01,19,5.20
2011,05,12,01,20,5.20
2011,05,12,01,21,5.20
2011,05,12,01,22,5.20
2011,05,12,01,23,5.10
2011,05,12,01,24,5.10
2011,05,12,01,25,5.00
2011,05,12,01,26,5.00
2011,05,12,01,27,4.90
2011,05,12,01,28,5.00
2011,05,12,01,29,5.00
2011,05,12,01,30,5.10
2011,05,12,01,31,5.10
2011,05,12,01,32,5.10
2011,05,12,01,33,5.20
2011,05,12,01,34,5.30
2011,05,12,01,35,5.40
2011,05,12,01,36,5.50
2011,05,12,01,37,5.50
2011,05,12,01,38,5.60
2011,05,12,01,39,5.60
2011,05,12,01,40,5.70
2011,05,12,01,41,5.70
2011,05,12,01,42,5.70
2011,05,12,01,43,5.60
2011,05,12,01,44,5.60
2011,05,12,01,45,5.60
2011,05,12,01,46,5.50
2011,05,12,01,47,5.60
2011,05,12,01,48,5.60
2011,05,12,01,49,5.60
2011,05,12,01,50,5.60
2011,05,12,01,51,5.60
2011,05,12,01,52,5.60
2011,05,12,01,53,5.50
2011,05,12,01,54,5.50
2011,05,12,01,55,5.60
2011,05,12,01,56,5.60
2011,05,12,01,57,5.60
2011,05,12,01,58,5.50
2011,05,12,01,59,5.50
2011,05,12,02,00,5.40
2011,05,12,02,01,5.40
2011,05,12,02,02,5.30
2011,05,12,02,03,5.20
2011,05,12,02,04,5.20
2011,05,12,02,05,5.10
2011,05,12,02,06,5.00
2011,05,12,02,07,4.90
2011,05,12,02,08,4.90
2011,05,12,02,09,4.80
2011,05,12,02,10,4.80
2011,05,12,02,11,4.70
2011,05,12,02,12,4.70
2011,05,12,02,13,4.70
2011,05,12,02,14,4.70
2011,05,12,02,15,4.70
2011,05,12,02,16,4.70
2011,05,12,02,17,4.70
2011,05,12,02,18,4.80
2011,05,12,02,19,4.90
2011,05,12,02,20,5.00
2011,05,12,02,21,5.10
2011,05,12,02,22,5.10
2011,05,12,02,23,5.20
2011,05,12,02,24,5.20
2011,05,12,02,25,5.30
2011,05,12,02,26,5.40
2011,05,12,02,27,5.50
2011,05,12,02,28,5.60
2011,05,12,02,29,5.70
2011,05,12,02,30,5.80
2011,05,12,02,31,5.80
2011,05,12,02,32,5.80
2011,05,12,02,33,5.80
2011,05,12,02,34,5.80
2011,05,12,02,35,5.80
2011,05,12,02,36,5.80
2011,05,12,02,37,5.70
2011,05,12,02,38,5.70
2011,05,12,02,39,5.70
2011,05,12,02,40,5.70
2011,05,12,02,41,5.70
2011,05,12,02,42,5.60
2011,05,12,02,43,5.60
2011,05,12,02,44,5.50
2011,05,12,02,45,5.50
2011,05,12,02,46,5.60
2011,05,12,02,47,5.60
2011,05,12,02,48,5.60
2011,05,12,02,49,5.50
2011,05,12,02,50,5.50
2011,05,12,02,51,5.50
2011,05,12,02,52,5.50
2011,05,12,02,53,5.60
2011,05,12,02,54,5.60
2011,05,12,02,55,5.70
2011,05,12,02,56,5.70
2011,05,12,02,57,5.70
2011,05,12,02,58,5.70
2011,05,12,02,59,5.70
2011,05,12,03,00,5.70
2011,05,12,03,01,5.70
2011,05,12,03,02,5.60
2011,05,12,03,03,5.50
2011,05,12,03,04,5.50
2011,05,12,03,05,5.50
2011,05,12,03,06,5.60
2011,05,12,03,07,5.60
2011,05,12,03,08,5.60
2011,05,12,03,09,5.50
2011,05,12,03,10,5.40
2011,05,12,03,11,5.40
2011,05,12,03,12,5.40
2011,05,12,03,13,5.40
2011,05,12,03,14,5.30
2011,05,12,03,15,5.30
2011,05,12,03,16,5.30
2011,05,12,03,17,5.20
2011,05,12,03,18,5.20
2011,05,12,03,19,5.20
2011,05,12,03,20,5.30
2011,05,12,03,21,5.20
2011,05,12,03,22,5.20
2011,05,12,03,23,5.20
2011,05,12,03,24,5.20
2011,05,12,03,25,5.10
2011,05,12,03,26,5.10
2011,05,12,03,27,5.10
2011,05,12,03,28,5.10
2011,05,12,03,29,5.10
2011,05,12,03,30,5.10
2011,05,12,03,31,5.10
2011,05,12,03,32,5.10
2011,05,12,03,33,5.10
2011,05,12,03,34,5.10
2011,05,12,03,35,5.00
2011,05,12,03,36,4.90
2011,05,12,03,37,4.90
2011,05,12,03,38,4.90
2011,05,12,03,39,4.80
2011,05,12,03,40,4.80
2011,05,12,03,41,4.70
2011,05,12,03,42,4.70
2011,05,12,03,43,4.70
2011,05,12,03,44,4.70
2011,05,12,03,45,4.60
2011,05,12,03,46,4.60
2011,05,12,03,47,4.60
2011,05,12,03,48,4.50
2011,05,12,03,49,4.50
2011,05,12,03,50,4.50
2011,05,12,03,51,4.50
2011,05,12,03,52,4.40
2011,05,12,03,53,4.40
2011,05,12,03,54,4.40
2011,05,12,03,55,4.40
2011,05,12,03,56,4.40
2011,05,12,03,57,4.40
2011,05,12,03,58,4.30
2011,05,12,03,59,4.30
2011,05,12,04,00,4.30
2011,05,12,04,01,4.30
2011,05,12,04,02,4.20
2011,05,12,04,03,4.20
2011,05,12,04,04,4.20
2011,05,12,04,05,4.10
2011,05,12,04,06,4.10
2011,05,12,04,07,4.10
2011,05,12,04,08,4.10
2011,05,12,04,09,4.10
2011,05,12,04,10,4.00
2011,05,12,04,11,4.00
2011,05,12,04,12,4.00
2011,05,12,04,13,4.00
2011,05,12,04,14,4.00
2011,05,12,04,15,4.00
2011,05,12,04,16,3.90
2011,05,12,04,17,3.90
2011,05,12,04,18,3.90
2011,05,12,04,19,3.90
2011,05,12,04,20,3.90
2011,05,12,04,21,3.90
2011,05,12,04,22,4.00
2011,05,12,04,23,4.00
2011,05,12,04,24,4.00
2011,05,12,04,25,4.00
2011,05,12,04,26,4.00
2011,05,12,04,27,3.90
2011,05,12,04,28,3.90
2011,05,12,04,29,3.90
2011,05,12,04,30,3.90
2011,05,12,04,31,3.90
2011,05,12,04,32,3.90
2011,05,12,04,33,3.90
2011,05,12,04,34,3.90
2011,05,12,04,35,3.90
2011,05,12,04,36,3.90
2011,05,12,04,37,3.80
2011,05,12,04,38,3.80
2011,05,12,04,39,3.90
2011,05,12,04,40,3.80
2011,05,12,04,41,3.90
2011,05,12,04,42,3.80
2011,05,12,04,43,3.90
2011,05,12,04,44,3.90
2011,05,12,04,45,3.90
2011,05,12,04,46,3.90
2011,05,12,04,47,3.90
2011,05,12,04,48,3.90
2011,05,12,04,49,4.00
2011,05,12,04,50,4.00
2011,05,12,04,51,4.10
2011,05,12,04,52,4.10
2011,05,12,04,53,4.10
2011,05,12,04,54,4.10
2011,05,12,04,55,4.10
2011,05,12,04,56,4.10
2011,05,12,04,57,4.10
2011,05,12,04,58,4.10
2011,05,12,04,59,4.10
2011,05,12,05,00,4.20
2011,05,12,05,01,4.20
2011,05,12,05,02,4.20
2011,05,12,05,03,4.20
2011,05,12,05,04,4.30
2011,05,12,05,05,4.30
2011,05,12,05,06,4.40
2011,05,12,05,07,4.40
2011,05,12,05,08,4.40
2011,05,12,05,09,4.40
2011,05,12,05,10,4.50
2011,05,12,05,11,4.60
2011,05,12,05,12,4.60
2011,05,12,05,13,4.60
2011,05,12,05,14,4.60
2011,05,12,05,15,4.60
2011,05,12,05,16,4.70
2011,05,12,05,17,4.70
2011,05,12,05,18,4.80
2011,05,12,05,19,4.80
2011,05,12,05,20,4.80
2011,05,12,05,21,4.80
2011,05,12,05,22,4.90
2011,05,12,05,23,4.90
2011,05,12,05,24,4.90
2011,05,12,05,25,4.90
2011,05,12,05,26,4.90
2011,05,12,05,27,4.90
2011,05,12,05,28,4.90
2011,05,12,05,29,5.00
2011,05,12,05,30,5.00
2011,05,12,05,31,5.00
2011,05,12,05,32,5.00
2011,05,12,05,33,5.00
2011,05,12,05,34,5.10
2011,05,12,05,35,5.10
2011,05,12,05,36,5.20
2011,05,12,05,37,5.20
2011,05,12,05,38,5.30
2011,05,12,05,39,5.30
2011,05,12,05,40,5.30
2011,05,12,05,41,5.40
2011,05,12,05,42,5.40
2011,05,12,05,43,5.40
2011,05,12,05,44,5.50
2011,05,12,05,45,5.50
2011,05,12,05,46,5.50
2011,05,12,05,47,5.60
2011,05,12,05,48,5.60
2011,05,12,05,49,5.70
2011,05,12,05,50,5.70
2011,05,12,05,51,5.70
2011,05,12,05,52,5.80
2011,05,12,05,53,5.80
2011,05,12,05,54,5.80
2011,05,12,05,55,5.80
2011,05,12,05,56,5.80
2011,05,12,05,57,5.80
2011,05,12,05,58,5.90
2011,05,12,05,59,5.90
2011,05,12,06,00,5.90
2011,05,12,06,01,5.90
2011,05,12,06,02,6.00
2011,05,12,06,03,6.00
2011,05,12,06,04,6.00
2011,05,12,06,05,6.00
2011,05,12,06,06,6.10
2011,05,12,06,07,6.10
2011,05,12,06,08,6.10
2011,05,12,06,09,6.20
2011,05,12,06,10,6.20
2011,05,12,06,11,6.20
2011,05,12,06,12,6.20
2011,05,12,06,13,6.20
2011,05,12,06,14,6.20
2011,05,12,06,15,6.20
2011,05,12,06,16,6.20
2011,05,12,06,17,6.20
2011,05,12,06,18,6.20
2011,05,12,06,19,6.20
2011,05,12,06,20,6.20
2011,05,12,06,21,6.20
2011,05,12,06,22,6.20
2011,05,12,06,23,6.20
2011,05,12,06,24,6.20
2011,05,12,06,25,6.20
2011,05,12,06,26,6.20
2011,05,12,06,27,6.20
2011,05,12,06,28,6.20
2011,05,12,06,29,6.20
2011,05,12,06,30,6.20
2011,05,12,06,31,6.10
2011,05,12,06,32,6.10
2011,05,12,06,33,6.10
2011,05,12,06,34,6.10
2011,05,12,06,35,6.20
2011,05,12,06,36,6.20
2011,05,12,06,37,6.20
2011,05,12,06,38,6.20
2011,05,12,06,39,6.20
2011,05,12,06,40,6.20
2011,05,12,06,41,6.20
2011,05,12,06,42,6.20
2011,05,12,06,43,6.20
2011,05,12,06,44,6.20
2011,05,12,06,45,6.20
2011,05,12,06,46,6.20
2011,05,12,06,47,6.20
2011,05,12,06,48,6.20
2011,05,12,06,49,6.20
2011,05,12,06,50,6.20
2011,05,12,06,51,6.30
2011,05,12,06,52,6.30
2011,05,12,06,53,6.30
2011,05,12,06,54,6.30
2011,05,12,06,55,6.30
2011,05,12,06,56,6.30
2011,05,12,06,57,6.30
2011,05,12,06,58,6.30
2011,05,12,06,59,6.30
2011,05,12,07,00,6.30
2011,05,12,07,01,6.30
2011,05,12,07,02,6.30
2011,05,12,07,03,6.30
2011,05,12,07,04,6.30
2011,05,12,07,05,6.30
2011,05,12,07,06,6.40
2011,05,12,07,07,6.40
2011,05,12,07,08,6.40
2011,05,12,07,09,6.40
2011,05,12,07,10,6.40
2011,05,12,07,11,6.40
2011,05,12,07,12,6.40
2011,05,12,07,13,6.40
2011,05,12,07,14,6.40
2011,05,12,07,15,6.50
2011,05,12,07,16,6.50
2011,05,12,07,17,6.60
2011,05,12,07,18,6.70
2011,05,12,07,19,6.70
2011,05,12,07,20,6.80
2011,05,12,07,21,6.80
2011,05,12,07,22,6.90
2011,05,12,07,23,7.00
2011,05,12,07,24,7.00
2011,05,12,07,25,7.10
2011,05,12,07,26,7.10
2011,05,12,07,27,7.10
2011,05,12,07,28,7.20
2011,05,12,07,29,7.20
2011,05,12,07,30,7.20
2011,05,12,07,31,7.20
2011,05,12,07,32,7.20
2011,05,12,07,33,7.20
2011,05,12,07,34,7.20
2011,05,12,07,35,7.20
2011,05,12,07,36,7.20
2011,05,12,07,37,7.20
2011,05,12,07,38,7.20
2011,05,12,07,39,7.30
2011,05,12,07,40,7.30
2011,05,12,07,41,7.30
2011,05,12,07,42,7.30
2011,05,12,07,43,7.30
2011,05,12,07,44,7.30
2011,05,12,07,45,7.40
2011,05,12,07,46,7.40
2011,05,12,07,47,7.40
2011,05,12,07,48,7.40
2011,05,12,07,49,7.40
2011,05,12,07,50,7.40
2011,05,12,07,51,7.40
2011,05,12,07,52,7.40
2011,05,12,07,53,7.40
2011,05,12,07,54,7.40
2011,05,12,07,55,7.40
2011,05,12,07,56,7.40
2011,05,12,07,57,7.40
2011,05,12,07,58,7.40
2011,05,12,07,59,7.40
2011,05,12,08,00,7.40
2011,05,12,08,01,7.40
2011,05,12,08,02,7.40
2011,05,12,08,03,7.40
2011,05,12,08,04,7.40
2011,05,12,08,05,7.40
2011,05,12,08,06,7.40
2011,05,12,08,07,7.40
2011,05,12,08,08,7.40
2011,05,12,08,09,7.40
2011,05,12,08,10,7.40
2011,05,12,08,11,7.40
2011,05,12,08,12,7.40
2011,05,12,08,13,7.50
2011,05,12,08,14,7.50
2011,05,12,08,15,7.50
2011,05,12,08,16,7.50
2011,05,12,08,17,7.50
2011,05,12,08,18,7.50
2011,05,12,08,19,7.50
2011,05,12,08,20,7.50
2011,05,12,08,21,7.60
2011,05,12,08,22,7.60
2011,05,12,08,23,7.60
2011,05,12,08,24,7.60
2011,05,12,08,25,7.60
2011,05,12,08,26,7.60
2011,05,12,08,27,7.70
2011,05,12,08,28,7.70
2011,05,12,08,29,7.70
2011,05,12,08,30,7.70
2011,05,12,08,31,7.80
2011,05,12,08,32,7.80
2011,05,12,08,33,7.80
2011,05,12,08,34,7.90
2011,05,12,08,35,7.90
2011,05,12,08,36,7.90
2011,05,12,08,37,7.90
2011,05,12,08,38,8.00
2011,05,12,08,39,8.00
2011,05,12,08,40,8.00
2011,05,12,08,41,8.00
2011,05,12,08,42,8.10
2011,05,12,08,43,8.10
2011,05,12,08,44,8.10
2011,05,12,08,45,8.20
2011,05,12,08,46,8.20
2011,05,12,08,47,8.20
2011,05,12,08,48,8.30
2011,05,12,08,49,8.30
2011,05,12,08,50,8.30
2011,05,12,08,51,8.40
2011,05,12,08,52,8.40
2011,05,12,08,53,8.50
2011,05,12,08,54,8.60
2011,05,12,08,55,8.70
2011,05,12,08,56,8.80
2011,05,12,08,57,8.90
2011,05,12,08,58,9.00
2011,05,12,08,59,9.10
2011,05,12,09,00,9.10
2011,05,12,09,01,9.20
2011,05,12,09,02,9.30
2011,05,12,09,03,9.50
2011,05,12,09,04,9.60
2011,05,12,09,05,9.70
2011,05,12,09,06,9.80
2011,05,12,09,07,9.90
2011,05,12,09,08,9.80
2011,05,12,09,09,9.70
2011,05,12,09,10,9.60
2011,05,12,09,11,9.60
2011,05,12,09,12,9.60
2011,05,12,09,13,9.60
2011,05,12,09,14,9.60
2011,05,12,09,15,9.70
2011,05,12,09,16,9.70
2011,05,12,09,17,9.70
2011,05,12,09,18,9.70
2011,05,12,09,19,9.80
2011,05,12,09,20,9.80
2011,05,12,09,21,9.90
2011,05,12,09,22,9.90
2011,05,12,09,23,9.90
2011,05,12,09,24,9.80
2011,05,12,09,25,9.70
2011,05,12,09,26,9.80
2011,05,12,09,27,9.80
2011,05,12,09,28,9.90
2011,05,12,09,29,9.90
2011,05,12,09,30,10.00
2011,05,12,09,31,10.00
2011,05,12,09,32,10.10
2011,05,12,09,33,10.10
2011,05,12,09,34,10.10
2011,05,12,09,35,10.20
2011,05,12,09,36,10.20
2011,05,12,09,37,10.10
2011,05,12,09,38,10.00
2011,05,12,09,39,9.90
2011,05,12,09,40,9.80
2011,05,12,09,41,9.80
2011,05,12,09,42,9.70
2011,05,12,09,43,9.70
2011,05,12,09,44,9.80
2011,05,12,09,45,9.80
2011,05,12,09,46,9.80
2011,05,12,09,47,9.80
2011,05,12,09,48,9.80
2011,05,12,09,49,9.80
2011,05,12,09,50,9.70
2011,05,12,09,51,9.70
2011,05,12,09,52,9.70
2011,05,12,09,53,9.70
2011,05,12,09,54,9.70
2011,05,12,09,55,9.70
2011,05,12,09,56,9.80
2011,05,12,09,57,9.80
2011,05,12,09,58,9.90
2011,05,12,09,59,10.00
2011,05,12,10,00,10.10
2011,05,12,10,01,10.10
2011,05,12,10,02,10.10
2011,05,12,10,03,10.10
2011,05,12,10,04,10.00
2011,05,12,10,05,9.90
2011,05,12,10,06,9.90
2011,05,12,10,07,9.90
2011,05,12,10,08,9.90
2011,05,12,10,09,9.90
2011,05,12,10,10,9.90
2011,05,12,10,11,9.90
2011,05,12,10,12,9.90
2011,05,12,10,13,9.90
2011,05,12,10,14,9.90
2011,05,12,10,15,9.80
2011,05,12,10,16,9.70
2011,05,12,10,17,9.60
2011,05,12,10,18,9.60
2011,05,12,10,19,9.50
2011,05,12,10,20,9.50
2011,05,12,10,21,9.60
2011,05,12,10,22,9.70
2011,05,12,10,23,9.80
2011,05,12,10,24,9.80
2011,05,12,10,25,9.90
2011,05,12,10,26,9.90
2011,05,12,10,27,9.80
2011,05,12,10,28,9.80
2011,05,12,10,29,9.80
2011,05,12,10,30,9.80
2011,05,12,10,31,9.80
2011,05,12,10,32,9.90
2011,05,12,10,33,9.90
2011,05,12,10,34,9.80
2011,05,12,10,35,9.70
2011,05,12,10,36,9.60
2011,05,12,10,37,9.50
2011,05,12,10,38,9.40
2011,05,12,10,39,9.30
2011,05,12,10,40,9.20
2011,05,12,10,41,9.30
2011,05,12,10,42,9.30
2011,05,12,10,43,9.30
2011,05,12,10,44,9.40
2011,05,12,10,45,9.40
2011,05,12,10,46,9.40
2011,05,12,10,47,9.30
2011,05,12,10,48,9.30
2011,05,12,10,49,9.30
2011,05,12,10,50,9.20
2011,05,12,10,51,9.20
2011,05,12,10,52,9.20
2011,05,12,10,53,9.20
2011,05,12,10,54,9.20
2011,05,12,10,55,9.20
2011,05,12,10,56,9.20
2011,05,12,10,57,9.20
2011,05,12,10,58,9.30
2011,05,12,10,59,9.40
2011,05,12,11,00,9.40
2011,05,12,11,01,9.40
2011,05,12,11,02,9.50
2011,05,12,11,03,9.50
2011,05,12,11,04,9.50
2011,05,12,11,05,9.60
2011,05,12,11,06,9.60
2011,05,12,11,07,9.60
2011,05,12,11,08,9.70
2011,05,12,11,09,9.80
2011,05,12,11,10,9.80
2011,05,12,11,11,9.90
2011,05,12,11,12,9.90
2011,05,12,11,13,10.00
2011,05,12,11,14,10.10
2011,05,12,11,15,10.00
2011,05,12,11,16,10.00
2011,05,12,11,17,9.90
2011,05,12,11,18,9.90
2011,05,12,11,19,9.90
2011,05,12,11,20,9.80
2011,05,12,11,21,9.80
2011,05,12,11,22,9.80
2011,05,12,11,23,9.80
2011,05,12,11,24,9.80
2011,05,12,11,25,9.80
2011,05,12,11,26,9.90
2011,05,12,11,27,10.00
2011,05,12,11,28,10.00
2011,05,12,11,29,10.10
2011,05,12,11,30,10.10
2011,05,12,11,31,10.10
2011,05,12,11,32,10.10
2011,05,12,11,33,10.10
2011,05,12,11,34,10.10
2011,05,12,11,35,10.10
2011,05,12,11,36,10.10
2011,05,12,11,37,10.20
2011,05,12,11,38,10.20
2011,05,12,11,39,10.30
2011,05,12,11,40,10.30
2011,05,12,11,41,10.20
2011,05,12,11,42,10.20
2011,05,12,11,43,10.10
2011,05,12,11,44,10.10
2011,05,12,11,45,10.00
2011,05,12,11,46,10.00
2011,05,12,11,47,10.00
2011,05,12,11,48,10.00
2011,05,12,11,49,9.90
2011,05,12,11,50,10.00
2011,05,12,11,51,10.10
2011,05,12,11,52,10.10
2011,05,12,11,53,10.20
2011,05,12,11,54,10.30
2011,05,12,11,55,10.50
2011,05,12,11,56,10.60
2011,05,12,11,57,10.80
2011,05,12,11,58,11.00
2011,05,12,11,59,11.20
2011,05,12,12,00,11.20
2011,05,12,12,01,11.30
2011,05,12,12,02,11.30
2011,05,12,12,03,11.30
2011,05,12,12,04,11.20
2011,05,12,12,05,11.10
2011,05,12,12,06,11.10
2011,05,12,12,07,11.00
2011,05,12,12,08,10.90
2011,05,12,12,09,10.90
2011,05,12,12,10,10.90
2011,05,12,12,11,10.90
2011,05,12,12,12,11.00
2011,05,12,12,13,11.10
2011,05,12,12,14,11.10
2011,05,12,12,15,11.10
2011,05,12,12,16,11.10
2011,05,12,12,17,11.00
2011,05,12,12,18,11.00
2011,05,12,12,19,11.00
2011,05,12,12,20,11.10
2011,05,12,12,21,11.10
2011,05,12,12,22,11.10
2011,05,12,12,23,11.10
2011,05,12,12,24,11.20
2011,05,12,12,25,11.40
2011,05,12,12,26,11.50
2011,05,12,12,27,11.60
2011,05,12,12,28,11.70
2011,05,12,12,29,11.70
2011,05,12,12,30,11.80
2011,05,12,12,31,11.80
2011,05,12,12,32,11.70
2011,05,12,12,33,11.70
2011,05,12,12,34,11.80
2011,05,12,12,35,11.80
2011,05,12,12,36,11.80
2011,05,12,12,37,11.80
2011,05,12,12,38,11.80
2011,05,12,12,39,11.80
2011,05,12,12,40,11.90
2011,05,12,12,41,11.90
2011,05,12,12,42,11.90
2011,05,12,12,43,11.90
2011,05,12,12,44,11.80
2011,05,12,12,45,11.90
2011,05,12,12,46,11.90
2011,05,12,12,47,11.90
2011,05,12,12,48,12.00
2011,05,12,12,49,12.00
2011,05,12,12,50,11.90
2011,05,12,12,51,11.80
2011,05,12,12,52,11.80
2011,05,12,12,53,11.80
2011,05,12,12,54,11.90
2011,05,12,12,55,11.90
2011,05,12,12,56,12.00
2011,05,12,12,57,12.10
2011,05,12,12,58,12.10
2011,05,12,12,59,12.10
2011,05,12,13,00,12.10
2011,05,12,13,01,12.00
2011,05,12,13,02,12.00
2011,05,12,13,03,12.10
2011,05,12,13,04,12.10
2011,05,12,13,05,12.10
2011,05,12,13,06,12.10
2011,05,12,13,07,12.10
2011,05,12,13,08,12.10
2011,05,12,13,09,12.10
2011,05,12,13,10,12.20
2011,05,12,13,11,12.20
2011,05,12,13,12,12.20
2011,05,12,13,13,12.30
2011,05,12,13,14,12.50
2011,05,12,13,15,12.60
2011,05,12,13,16,12.70
2011,05,12,13,17,12.80
2011,05,12,13,18,12.80
2011,05,12,13,19,12.80
2011,05,12,13,20,12.80
2011,05,12,13,21,12.80
2011,05,12,13,22,12.70
2011,05,12,13,23,12.50
2011,05,12,13,24,12.30
2011,05,12,13,25,12.30
2011,05,12,13,26,12.30
2011,05,12,13,27,12.40
2011,05,12,13,28,12.50
2011,05,12,13,29,12.60
2011,05,12,13,30,12.60
2011,05,12,13,31,12.70
2011,05,12,13,32,12.60
2011,05,12,13,33,12.50
2011,05,12,13,34,12.40
2011,05,12,13,35,12.30
2011,05,12,13,36,12.20
2011,05,12,13,37,12.10
2011,05,12,13,38,12.10
2011,05,12,13,39,12.10
2011,05,12,13,40,12.10
2011,05,12,13,41,12.10
2011,05,12,13,42,12.20
2011,05,12,13,43,12.20
2011,05,12,13,44,12.30
2011,05,12,13,45,12.20
2011,05,12,13,46,12.10
2011,05,12,13,47,12.10
2011,05,12,13,48,12.00
2011,05,12,13,49,11.90
2011,05,12,13,50,11.80
2011,05,12,13,51,11.70
2011,05,12,13,52,11.60
2011,05,12,13,53,11.60
2011,05,12,13,54,11.60
2011,05,12,13,55,11.60
2011,05,12,13,56,11.70
2011,05,12,13,57,11.70
2011,05,12,13,58,11.70
2011,05,12,13,59,11.80
2011,05,12,14,00,11.80
2011,05,12,14,01,11.90
2011,05,12,14,02,11.90
2011,05,12,14,03,12.00
2011,05,12,14,04,12.10
2011,05,12,14,05,12.20
2011,05,12,14,06,12.30
2011,05,12,14,07,12.30
2011,05,12,14,08,12.40
2011,05,12,14,09,12.40
2011,05,12,14,10,12.40
2011,05,12,14,11,12.50
2011,05,12,14,12,12.50
2011,05,12,14,13,12.40
2011,05,12,14,14,12.30
2011,05,12,14,15,12.30
2011,05,12,14,16,12.30
2011,05,12,14,17,12.30
2011,05,12,14,18,12.30
2011,05,12,14,19,12.30
2011,05,12,14,20,12.40
2011,05,12,14,21,12.40
2011,05,12,14,22,12.40
2011,05,12,14,23,12.40
2011,05,12,14,24,12.40
2011,05,12,14,25,12.50
2011,05,12,14,26,12.60
2011,05,12,14,27,12.60
2011,05,12,14,28,12.60
2011,05,12,14,29,12.60
2011,05,12,14,30,12.60
2011,05,12,14,31,12.50
2011,05,12,14,32,12.30
2011,05,12,14,33,12.20
2011,05,12,14,34,12.20
2011,05,12,14,35,12.20
2011,05,12,14,36,12.30
2011,05,12,14,37,12.30
2011,05,12,14,38,12.30
2011,05,12,14,39,12.30
2011,05,12,14,40,12.30
2011,05,12,14,41,12.30
2011,05,12,14,42,12.40
2011,05,12,14,43,12.40
2011,05,12,14,44,12.40
2011,05,12,14,45,12.40
2011,05,12,14,46,12.50
2011,05,12,14,47,12.60
2011,05,12,14,48,12.50
2011,05,12,14,49,12.50
2011,05,12,14,50,12.50
2011,05,12,14,51,12.50
2011,05,12,14,52,12.50
2011,05,12,14,53,12.60
2011,05,12,14,54,12.60
2011,05,12,14,55,12.60
2011,05,12,14,56,12.60
2011,05,12,14,57,12.50
2011,05,12,14,58,12.40
2011,05,12,14,59,12.40
2011,05,12,15,00,12.40
2011,05,12,15,01,12.50
2011,05,12,15,02,12.60
2011,05,12,15,03,12.70
2011,05,12,15,04,12.70
2011,05,12,15,05,12.70
2011,05,12,15,06,12.70
2011,05,12,15,07,12.70
2011,05,12,15,08,12.70
2011,05,12,15,09,12.60
2011,05,12,15,10,12.70
2011,05,12,15,11,12.60
2011,05,12,15,12,12.70
2011,05,12,15,13,12.70
2011,05,12,15,14,12.70
2011,05,12,15,15,12.70
2011,05,12,15,16,12.70
2011,05,12,15,17,12.80
2011,05,12,15,18,12.80
2011,05,12,15,19,12.90
2011,05,12,15,20,12.90
2011,05,12,15,21,13.00
2011,05,12,15,22,13.10
2011,05,12,15,23,13.10
2011,05,12,15,24,13.10
2011,05,12,15,25,13.10
2011,05,12,15,26,13.10
2011,05,12,15,27,13.10
2011,05,12,15,28,13.10
2011,05,12,15,29,13.20
2011,05,12,15,30,13.20
2011,05,12,15,31,13.20
2011,05,12,15,32,13.20
2011,05,12,15,33,13.20
2011,05,12,15,34,13.30
2011,05,12,15,35,13.30
2011,05,12,15,36,13.40
2011,05,12,15,37,13.50
2011,05,12,15,38,13.60
2011,05,12,15,39,13.70
2011,05,12,15,40,13.70
2011,05,12,15,41,13.80
2011,05,12,15,42,13.90
2011,05,12,15,43,13.90
2011,05,12,15,44,13.90
2011,05,12,15,45,13.90
2011,05,12,15,46,13.80
2011,05,12,15,47,13.80
2011,05,12,15,48,13.80
2011,05,12,15,49,13.70
2011,05,12,15,50,13.80
2011,05,12,15,51,13.70
2011,05,12,15,52,13.70
2011,05,12,15,53,13.70
2011,05,12,15,54,13.70
2011,05,12,15,55,13.60
2011,05,12,15,56,13.50
2011,05,12,15,57,13.40
2011,05,12,15,58,13.40
2011,05,12,15,59,13.50
2011,05,12,16,00,13.50
2011,05,12,16,01,13.50
2011,05,12,16,02,13.50
2011,05,12,16,03,13.50
2011,05,12,16,04,13.60
2011,05,12,16,05,13.60
2011,05,12,16,06,13.70
2011,05,12,16,07,13.70
2011,05,12,16,08,13.70
2011,05,12,16,09,13.70
2011,05,12,16,10,13.70
2011,05,12,16,11,13.70
2011,05,12,16,12,13.80
2011,05,12,16,13,13.80
2011,05,12,16,14,13.90
2011,05,12,16,15,13.90
2011,05,12,16,16,14.00
2011,05,12,16,17,14.00
2011,05,12,16,18,14.10
2011,05,12,16,19,14.10
2011,05,12,16,20,14.00
2011,05,12,16,21,14.00
2011,05,12,16,22,13.90
2011,05,12,16,23,13.80
2011,05,12,16,24,13.80
2011,05,12,16,25,13.90
2011,05,12,16,26,13.90
2011,05,12,16,27,13.90
2011,05,12,16,28,13.80
2011,05,12,16,29,13.80
2011,05,12,16,30,13.80
2011,05,12,16,31,13.80
2011,05,12,16,32,13.80
2011,05,12,16,33,13.80
2011,05,12,16,34,13.90
2011,05,12,16,35,13.90
2011,05,12,16,36,14.00
2011,05,12,16,37,14.00
2011,05,12,16,38,14.10
2011,05,12,16,39,14.10
2011,05,12,16,40,14.20
2011,05,12,16,41,14.20
2011,05,12,16,42,14.10
2011,05,12,16,43,14.00
2011,05,12,16,44,13.90
2011,05,12,16,45,13.80
2011,05,12,16,46,13.80
2011,05,12,16,47,13.80
2011,05,12,16,48,13.70
2011,05,12,16,49,13.60
2011,05,12,16,50,13.50
2011,05,12,16,51,13.50
2011,05,12,16,52,13.50
2011,05,12,16,53,13.50
2011,05,12,16,54,13.60
2011,05,12,16,55,13.70
2011,05,12,16,56,13.70
2011,05,12,16,57,13.70
2011,05,12,16,58,13.60
2011,05,12,16,59,13.40
2011,05,12,17,00,13.30
2011,05,12,17,01,13.20
2011,05,12,17,02,13.10
2011,05,12,17,03,13.10
2011,05,12,17,04,13.00
2011,05,12,17,05,12.90
2011,05,12,17,06,12.80
2011,05,12,17,07,12.70
2011,05,12,17,08,12.70
2011,05,12,17,09,12.70
2011,05,12,17,10,12.70
2011,05,12,17,11,12.70
2011,05,12,17,12,12.80
2011,05,12,17,13,12.80
2011,05,12,17,14,12.90
2011,05,12,17,15,13.00
2011,05,12,17,16,13.00
2011,05,12,17,17,13.00
2011,05,12,17,18,13.00
2011,05,12,17,19,12.90
2011,05,12,17,20,12.80
2011,05,12,17,21,12.80
2011,05,12,17,22,12.80
2011,05,12,17,23,12.80
2011,05,12,17,24,12.80
2011,05,12,17,25,12.80
2011,05,12,17,26,12.90
2011,05,12,17,27,12.90
2011,05,12,17,28,13.00
2011,05,12,17,29,13.00
2011,05,12,17,30,13.00
2011,05,12,17,31,12.90
2011,05,12,17,32,13.00
2011,05,12,17,33,13.00
2011,05,12,17,34,13.00
2011,05,12,17,35,13.00
2011,05,12,17,36,13.10
2011,05,12,17,37,13.10
2011,05,12,17,38,13.10
2011,05,12,17,39,13.10
2011,05,12,17,40,13.10
2011,05,12,17,41,13.10
2011,05,12,17,42,13.00
2011,05,12,17,43,12.90
2011,05,12,17,44,12.80
2011,05,12,17,45,12.80
2011,05,12,17,46,12.80
2011,05,12,17,47,12.70
2011,05,12,17,48,12.70